Tacoma, WA

6:15 AM PDT on April 30, 2017 (GMT -0700)
McChord Air Force Base

Weather History for KTCM - March, 2013

Change the Weather History Date:

Saturday, March 30, 2013

  Actual Average Record
Temperature  
Mean Temperature 50 °F -  
Max Temperature 66 °F 52 °F 72 °F (1995)
Min Temperature 33 °F 33 °F 27 °F (1968)
Degree Days  
Heating Degree Days 16    
Moisture  
Dew Point 39 °F    
Average Humidity 93    
Maximum Humidity 100    
Minimum Humidity 39    
Precipitation  
Precipitation 0.00 in - - ()
Sea Level Pressure  
Sea Level Pressure 30.23 in    
Wind  
Wind Speed 2 mph (ESE)    
Max Wind Speed 13 mph    
Max Gust Speed -    
Visibility 3 miles    
Events Fog    
Averages and records for this station are not official NWS values.
T = Trace of Precipitation, MM = Missing Value Source: NWS Daily Summary

Daily Weather History Graph

Daily Weather History Graph

Search for Another Location

Airport or City:

Trip Planner

Search our weather history database for the weather conditions in past years. The results will help you decide how hot, cold, wet, or windy it might be!

Date:

Astronomy

Mar. 30, 2013 Rise Set
Actual Time 6:52 AM PDT 7:37 PM PDT
Civil Twilight 6:21 AM PDT 8:08 PM PDT
Nautical Twilight 5:44 AM PDT 8:44 PM PDT
Astronomical Twilight 5:06 AM PDT 9:23 PM PDT
Moon No Moon Rise 8:36 AM PDT
Length of Visible Light 13h 46m
Length of Day
12h 44m
Waning Gibbous, 85% of the Moon is Illuminated
Mar 30
Waning Gibbous
Apr 2
Last Quarter
Apr 10
New
Apr 18
First Quarter
Apr 25
Full

Hourly Weather History & Observations

Time (PDT) Temp. Windchill Dew Point Humidity Pressure Visibility Wind Dir Wind Speed Gust Speed Precip Events Conditions
12:36 AM 42.8 °F - 41.0 °F 93% 30.25 in 10.0 mi Calm Calm - N/A   Clear
12:46 AM 39.2 °F - 39.2 °F 100% 30.25 in 10.0 mi SSE 1.2 mph - N/A   Clear
12:58 AM 40.8 °F - 40.5 °F 99% 30.25 in 10.0 mi SE 2.3 mph - 0.00 in   Clear
1:53 AM 41.0 °F 39.0 °F 41.0 °F 100% 30.25 in 2.5 mi SSW 3.5 mph - N/A   Clear
1:58 AM 40.3 °F 38.2 °F 39.7 °F 98% 30.25 in 3.0 mi South 3.5 mph - N/A   Clear
2:03 AM 41.0 °F 38.0 °F 41.0 °F 100% 30.25 in 2.5 mi South 4.6 mph - N/A   Clear
2:13 AM 39.2 °F 37.0 °F 37.4 °F 93% 30.25 in 3.0 mi South 3.5 mph - N/A   Clear
2:28 AM 39.2 °F - 39.2 °F 100% 30.25 in 1.5 mi South 2.3 mph - N/A   Clear
2:33 AM 41.0 °F - 39.2 °F 93% 30.25 in 1.2 mi South 1.2 mph - N/A   Clear
2:38 AM 41.0 °F - 41.0 °F 100% 30.25 in 1.0 mi South 1.2 mph - N/A   Clear
2:58 AM 39.2 °F - 38.8 °F 99% 30.25 in 1.0 mi SSE 1.2 mph - N/A   Clear
3:03 AM 37.4 °F - 37.4 °F 100% 30.25 in 0.8 mi Calm Calm - N/A   Clear
3:08 AM 37.4 °F - 37.4 °F 100% 30.25 in 0.8 mi SSE 1.2 mph - N/A   Clear
3:18 AM 37.4 °F - 37.4 °F 100% 30.25 in 1.0 mi South 1.2 mph - N/A   Clear
3:23 AM 39.2 °F - 37.4 °F 93% 30.25 in 1.2 mi Calm Calm - N/A   Clear
3:28 AM 39.2 °F - 37.4 °F 93% 30.25 in 1.8 mi Calm Calm - N/A   Clear
3:33 AM 37.4 °F - 37.4 °F 100% 30.25 in 4.0 mi Calm Calm - N/A   Clear
3:38 AM 39.2 °F - 37.4 °F 93% 30.25 in 1.8 mi Calm Calm - N/A   Clear
3:43 AM 39.2 °F - 37.4 °F 93% 30.25 in 1.0 mi Calm Calm - N/A   Clear
3:58 AM 37.4 °F - 37.4 °F 100% 30.25 in 0.8 mi Calm Calm - N/A   Clear
4:03 AM 37.4 °F - 37.4 °F 100% 30.25 in 0.8 mi Calm Calm - N/A   Clear
4:08 AM 37.4 °F - 37.4 °F 100% 30.25 in 1.5 mi Calm Calm - N/A   Clear
4:13 AM 37.4 °F - 37.4 °F 100% 30.25 in 2.5 mi South 2.3 mph - N/A   Clear
4:18 AM 37.4 °F - 37.4 °F 100% 30.25 in 1.0 mi Calm Calm - N/A   Clear
4:23 AM 37.4 °F - 37.4 °F 100% 30.25 in 0.8 mi Calm Calm - N/A   Clear
4:28 AM 37.4 °F - 37.4 °F 100% 30.25 in 0.8 mi Calm Calm - N/A   Clear
4:33 AM 37.4 °F - 37.4 °F 100% 30.25 in 0.8 mi Calm Calm - N/A   Clear
4:38 AM 37.4 °F - 37.4 °F 100% 30.25 in 1.0 mi Calm Calm - N/A   Clear
4:43 AM 37.4 °F - 37.4 °F 100% 30.24 in 0.8 mi South 2.3 mph - N/A   Clear
4:48 AM 37.4 °F - 37.4 °F 100% 30.24 in 0.8 mi South 2.3 mph - N/A   Clear
4:53 AM 37.4 °F - 37.4 °F 100% 30.25 in 1.0 mi Calm Calm - N/A   Clear
4:58 AM 35.6 °F - 35.6 °F 100% 30.27 in 2.0 mi Calm Calm - N/A   Clear
5:03 AM 35.6 °F - 35.6 °F 100% 30.24 in 4.0 mi South 1.2 mph - N/A   Clear
5:08 AM 35.6 °F - 35.6 °F 100% 30.24 in 1.5 mi South 2.3 mph - N/A   Clear
5:13 AM 35.6 °F - 35.6 °F 100% 30.24 in 1.2 mi Calm Calm - N/A   Clear
5:18 AM 35.6 °F - 35.6 °F 100% 30.24 in 1.5 mi Calm Calm - N/A   Clear
5:23 AM 35.6 °F - 35.6 °F 100% 30.24 in 1.0 mi Calm Calm - N/A   Clear
5:28 AM 35.6 °F - 35.6 °F 100% 30.24 in 0.8 mi Calm Calm - N/A   Clear
5:43 AM 35.6 °F - 35.6 °F 100% 30.24 in 0.5 mi Calm Calm - N/A Fog Fog
5:48 AM 35.6 °F - 35.6 °F 100% 30.24 in 0.8 mi South 2.3 mph - N/A   Clear
5:53 AM 35.6 °F - 35.6 °F 100% 30.24 in 0.8 mi South 2.3 mph - N/A   Clear
5:58 AM 34.9 °F 32.0 °F 34.7 °F 99% 30.26 in 1.0 mi South 3.5 mph - N/A   Clear
6:03 AM 35.6 °F - 35.6 °F 100% 30.24 in 1.2 mi South 2.3 mph - N/A   Clear
6:23 AM 33.8 °F - 33.8 °F 100% 30.24 in 1.5 mi South 1.2 mph - N/A   Clear
6:38 AM 33.8 °F - 33.8 °F 100% 30.24 in 1.0 mi Calm Calm - N/A   Clear
6:43 AM 33.8 °F - 33.8 °F 100% 30.24 in 0.5 mi Calm Calm - N/A Fog Fog
6:48 AM 33.8 °F - 33.8 °F 100% 30.24 in 0.2 mi South 2.3 mph - N/A Fog Fog
6:53 AM 33.8 °F - 33.8 °F 100% 30.24 in 0.2 mi Calm Calm - N/A Fog Fog
6:58 AM 33.8 °F - 33.6 °F 99% 30.26 in 0.2 mi Calm Calm - N/A Fog Fog
7:13 AM 35.6 °F - 33.8 °F 93% 30.24 in 0.5 mi Calm Calm - N/A Fog Fog
7:18 AM 33.8 °F - 32.0 °F 93% 30.24 in 1.8 mi Calm Calm - N/A   Clear
7:23 AM 35.6 °F - 35.6 °F 100% 30.25 in 1.5 mi Calm Calm - N/A   Clear
7:24 AM 35.6 °F - 35.6 °F 100% 30.24 in 1.2 mi Calm Calm - N/A   Partly Cloudy
7:29 AM 35.6 °F - 35.6 °F 100% 30.25 in 1.0 mi Calm Calm - N/A   Mist
7:34 AM 35.6 °F - 35.6 °F 100% 30.25 in 1.5 mi Calm Calm - N/A   Mostly Cloudy
7:39 AM 37.4 °F - 37.4 °F 100% 30.25 in 1.5 mi North 2.3 mph - N/A   Mostly Cloudy
7:44 AM 37.4 °F - 37.4 °F 100% 30.25 in 1.0 mi Calm Calm - N/A   Mostly Cloudy
7:49 AM 37.4 °F - 37.4 °F 100% 30.24 in 0.5 mi North - - N/A Fog Fog
7:54 AM 37.4 °F - 37.4 °F 100% 30.24 in 0.2 mi North 2.3 mph - N/A Fog Fog
7:58 AM 39.2 °F - 39.2 °F 100% 30.26 in 0.2 mi North 1.2 mph - N/A Fog Fog
8:03 AM 39.2 °F - 39.2 °F 100% 30.24 in 0.2 mi Calm Calm - N/A Fog Fog
8:13 AM 41.0 °F - 41.0 °F 100% 30.24 in 0.2 mi Calm Calm - N/A Fog Fog
8:38 AM 44.6 °F - 44.6 °F 100% 30.24 in 0.2 mi Calm Calm - N/A Fog Fog
8:43 AM 44.6 °F - 44.6 °F 100% 30.24 in 0.2 mi Calm Calm - N/A Fog Fog
8:48 AM 44.6 °F - 44.6 °F 100% 30.24 in 0.5 mi Calm Calm - N/A Fog Fog
8:53 AM 44.6 °F - 44.6 °F 100% 30.25 in 1.0 mi Variable 2.3 mph - N/A   Overcast
8:58 AM 44.6 °F - 44.6 °F 100% 30.26 in 2.0 mi ENE 2.3 mph - N/A   Overcast
9:03 AM 46.4 °F 45.2 °F 46.4 °F 100% 30.25 in 4.0 mi NNE 3.5 mph - N/A   Overcast
9:38 AM 46.4 °F 43.5 °F 46.4 °F 100% 30.24 in 10.0 mi NE 5.8 mph - N/A   Mostly Cloudy
9:43 AM 46.4 °F 42.9 °F 46.4 °F 100% 30.24 in 10.0 mi NNE 6.9 mph - N/A   Scattered Clouds
9:58 AM 47.7 °F - 47.7 °F 100% 30.26 in 10.0 mi NNE 6.9 mph - N/A   Clear
10:58 AM 55.9 °F - 45.5 °F 68% 30.25 in 10.0 mi North 12.7 mph - N/A   Clear
11:58 AM 58.1 °F - 45.0 °F 62% 30.24 in 10.0 mi North 12.7 mph - N/A   Clear
12:58 PM 60.3 °F - 45.5 °F 58% 30.23 in 10.0 mi North 9.2 mph - N/A   Clear
1:58 PM 62.1 °F - 45.9 °F 55% 30.21 in 10.0 mi NNE 10.4 mph - N/A   Clear
2:58 PM 64.8 °F - 46.2 °F 51% 30.18 in 10.0 mi North 10.4 mph - N/A   Clear
3:58 PM 66.2 °F - 46.2 °F 49% 30.16 in 10.0 mi NE 8.1 mph - N/A   Clear
4:58 PM 66.4 °F - 44.1 °F 44% 30.14 in 10.0 mi NNE 8.1 mph - N/A   Clear
5:58 PM 65.1 °F - 39.6 °F 39% 30.13 in 10.0 mi NE 10.4 mph - N/A   Clear
6:58 PM 62.2 °F - 41.7 °F 47% 30.11 in 10.0 mi NNE 6.9 mph - N/A   Clear
7:58 PM 57.7 °F - 42.3 °F 56% 30.10 in 10.0 mi NE 6.9 mph - N/A   Clear
8:58 PM 55.4 °F - 43.7 °F 65% 30.11 in 10.0 mi NE 5.8 mph - N/A   Clear
9:58 PM 53.8 °F - 44.4 °F 71% 30.11 in 10.0 mi NNE 5.8 mph - N/A   Clear
10:58 PM 50.0 °F - 43.3 °F 78% 30.09 in 10.0 mi Calm Calm - N/A   Clear
11:58 PM 43.7 °F - 41.7 °F 93% 30.09 in 10.0 mi SSE 1.2 mph - N/A   Clear